Regional Weather Roundup
Issued by NWS Bismarck, ND

Home | Current Version | Previous Version | Text Only | Print | Product List | Glossary On
Versions: 1 2 3 4 5 6 7 8 9 10 11 12 13 14 15 16 17 18 19 20 21 22 23 24 25 26 27 28 29 30 31 32 33 34 35 36 37 38 39 40 41 42 43 44 45 46 47 48 49 50
624
ASUS43 KBIS 130610
RWRBIS

NWR BROADCAST TEXT
NATIONAL WEATHER SERVICE BISMARCK ND
1200 AM CST SAT FEB 13 2016

NOTE: "FAIR" INDICATES FEW OR NO CLOUDS BELOW 12,000 FEET WITH NO
SIGNIFICANT WEATHER AND/OR OBSTRUCTIONS TO VISIBILITY.


CITY           SKY/WX    TMP DP  RH WIND       PRES   REMARKS
WILLISTON      LGT SNOW  12   6  77 SE10G20   30.31F WCI  -1
MINOT          CLOUDY     5  -4  66 SE8       30.46F WCI  -8
MINOT AFB      CLOUDY     5  -2  73 SE13      30.46F WCI -12
BISMARCK       CLOUDY     5  -5  63 SE9       30.51F WCI  -9
DICKINSON      CLOUDY    10   4  76 SE22      30.27F WCI -10
GARRISON         N/A      5  -2  72 SE13      30.45F WCI -12
HETTINGER ARPT CLOUDY    13   8  81 SE16      30.31F WCI  -3
JAMESTOWN      CLOUDY    -7 -12  79 CALM      30.58F
BEACH          FLURRIES  16  14  93 SE20G29   30.24F WCI  -1
CARRINGTON     FAIR      -4  -8  84 S7        30.58F WCI -18
HAZEN          CLOUDY     7  -2  66 SE9       30.47F WCI  -7
LINTON         FAIR       1  -2  85 SE14      30.53S WCI -17
MANDAN         CLOUDY     1  -2  85 SE12      30.48F WCI -15
OAKES          FAIR      -6 -11  77 CALM      30.61S
RUGBY          FAIR      -2  -8  78 SE6       30.53F WCI -14
STANLEY        CLOUDY     7   1  78 SE15      30.38F WCI -11
TIOGA          FAIR       9   3  78 SE20      30.38F WCI -11
WATFORD CITY   LGT SNOW  10   7  85 SE13      30.32F WCI  -5
$$

CITY           SKY/WX    TMP DP  RH WIND       PRES   REMARKS
GRAND FORKS    CLOUDY    -7 -14  71 W3        30.67S
GRAND FORKS AF CLOUDY   -10 -16  73 W2        30.66S
DEVILS LAKE    CLOUDY   -15 -20  78 SE3       30.58S
FARGO          CLOUDY    -7 -14  71 CALM      30.67F
CAVALIER       FAIR      -9 -13  84 SW3       30.65S
GRAFTON        FAIR      -8 -13  77 S3        30.68S
GWINNER        FAIR      -8 -13  77 N5        30.62F WCI -19
LANGDON        FAIR     -22 -29  69 SW7       30.55S WCI -39
ROLLA          FAIR     -11 -17  77 S7        30.51F WCI -26
WALHALLA       FAIR     -11 -17  77 SW3       30.64S
$$

CITY           SKY/WX    TMP DP  RH WIND       PRES   REMARKS
ABERDEEN       CLOUDY     0  -9  65 E3        30.62F
MOBRIDGE       CLOUDY     8   2  76 SE14      30.47F WCI  -8
BUFFALO          N/A     18  15  88 SE18      30.15F WCI   2
RAPID CITY     CLOUDY    25  22  88 SE16      30.22F WCI  12
GLASGOW        CLOUDY    18  13  80 E22       30.11F WCI   1
SIDNEY         CLOUDY    16  10  79 SE12      30.27F WCI   3
WOLF POINT     CLOUDY    19  14  81 E13       30.21F WCI   6
GLENDIVE       CLOUDY    21  16  79 E8        30.22F WCI  12
MILES CITY     CLOUDY    29  24  82 SE15      30.11F WCI  18
BAKER          CLOUDY    21  15  78 SE23G29   30.18F WCI   5
$$

CITY           SKY/WX    TMP DP  RH WIND       PRES   REMARKS
BILLINGS       MOCLDY    35  30  82 SW3       30.03F
GREAT FALLS    CLEAR     40  31  70 SW12      29.96F
REGINA         CLOUDY     9   0  66 SE23      30.27F WCI -12
$$





USA.gov is the U.S. government's official web portal to all federal, state and local government web resources and services.